{"data":{"norad_id":67163,"epoch":"2026-05-24T23:37:43.431744Z","epoch_age_seconds":73566,"freshness":"FRESH","line1":"1 67163U 25303A   26144.98453046  .00012356  00000+0  45768-3 0  9991","line2":"2 67163  43.0007 239.8289 0000936 278.5099  81.5647 15.27587153 24403","mean_motion":15.27587153,"eccentricity":9.36e-5,"inclination_deg":43.0007,"raan_deg":239.8289,"arg_perigee_deg":278.5099,"mean_anomaly_deg":81.5647,"bstar":0.00045768,"rev_number":2440,"period_min":94.266307305086,"perigee_km":482.38547245414,"apogee_km":483.66988248176,"semimajor_km":6861.164677468,"source":"CELESTRAK","updated_at":"2026-05-25T13:38:21.479323Z"}}